Minneapolis Crystal, MN

3:30 AM CST on November 19, 2017 (GMT -0600)
Crystal

Weather History for KMIC - November, 2013

Change the Weather History Date:

Saturday, November 2, 2013

  Actual Average Record
Temperature  
Mean Temperature 39 °F -  
Max Temperature 48 °F 47 °F 72 °F (2015)
Min Temperature 30 °F 31 °F 12 °F (1991)
Degree Days  
Heating Degree Days 26    
Moisture  
Dew Point 30 °F    
Average Humidity 71    
Maximum Humidity 92    
Minimum Humidity 46    
Precipitation  
Precipitation 0.00 in - - ()
Sea Level Pressure  
Sea Level Pressure 30.03 in    
Wind  
Wind Speed 6 mph (NW)    
Max Wind Speed 10 mph    
Max Gust Speed -    
Visibility 9 miles    
Events      
Averages and records for this station are not official NWS values.
T = Trace of Precipitation, MM = Missing Value Source: NWS Daily Summary

Daily Weather History Graph

Daily Weather History Graph

Search for Another Location

Airport or City:

Trip Planner

Search our weather history database for the weather conditions in past years. The results will help you decide how hot, cold, wet, or windy it might be!

Date:

Astronomy

Nov. 02, 2013 Rise Set
Actual Time 7:53 AM CDT 5:59 PM CDT
Civil Twilight 7:22 AM CDT 6:30 PM CDT
Nautical Twilight 6:48 AM CDT 7:05 PM CDT
Astronomical Twilight 6:13 AM CDT 7:39 PM CDT
Moon 6:49 AM CDT (11/2) 5:32 PM CDT (11/2)
Length of Visible Light 11h 07m
Length of Day
10h 05m
Waning Crescent, 1% of the Moon is Illuminated
Nov 2
Waning Crescent
Nov 3
New
Nov 9
First Quarter
Nov 17
Full
Nov 25
Last Quarter

Hourly Weather History & Observations

Time (CDT) Temp. Windchill Dew Point Humidity Pressure Visibility Wind Dir Wind Speed Gust Speed Precip Events Conditions
12:53 AM 39.9 °F 35.8 °F 34.0 °F 79% 29.86 in 10.0 mi West 5.8 mph - N/A   Overcast
1:53 AM 41.0 °F 34.7 °F 34.0 °F 76% 29.88 in 10.0 mi WNW 10.4 mph - N/A   Overcast
2:53 AM 39.0 °F 32.3 °F 30.0 °F 70% 29.91 in 10.0 mi NW 10.4 mph - N/A   Partly Cloudy
3:53 AM 36.0 °F 30.3 °F 28.9 °F 76% 29.93 in 10.0 mi NW 6.9 mph - N/A   Clear
4:53 AM 37.0 °F 31.6 °F 28.9 °F 73% 29.94 in 10.0 mi NW 6.9 mph - N/A   Overcast
5:53 AM 34.0 °F 28.0 °F 28.0 °F 79% 29.96 in 10.0 mi NW 6.9 mph - N/A   Clear
6:53 AM 33.1 °F 26.9 °F 28.0 °F 82% 29.99 in 10.0 mi NW 6.9 mph - N/A   Clear
7:53 AM 32.0 °F 26.4 °F 27.0 °F 82% 30.02 in 10.0 mi NW 5.8 mph - N/A   Clear
8:53 AM 35.1 °F 30.1 °F 28.9 °F 78% 30.03 in 10.0 mi NW 5.8 mph - N/A   Clear
9:53 AM 37.9 °F 33.5 °F 28.9 °F 70% 30.05 in 10.0 mi NNW 5.8 mph - N/A   Clear
10:53 AM 39.9 °F 35.1 °F 30.0 °F 68% 30.07 in 10.0 mi NNW 6.9 mph - N/A   Clear
11:53 AM 43.0 °F 38.2 °F 30.0 °F 60% 30.08 in 10.0 mi NW 8.1 mph - N/A   Clear
12:53 PM 46.0 °F 43.1 °F 28.9 °F 51% 30.08 in 10.0 mi NNW 5.8 mph - N/A   Clear
1:53 PM 46.0 °F 41.9 °F 28.0 °F 50% 30.06 in 10.0 mi West 8.1 mph - N/A   Clear
2:53 PM 48.0 °F - 28.0 °F 46% 30.06 in 10.0 mi NW 9.2 mph - N/A   Clear
3:53 PM 48.9 °F - 28.9 °F 46% 30.07 in 10.0 mi Variable 4.6 mph - N/A   Clear
4:53 PM 48.0 °F - 28.9 °F 48% 30.07 in 10.0 mi Variable 3.5 mph - N/A   Clear
5:53 PM 46.0 °F - 30.0 °F 54% 30.08 in 10.0 mi Calm Calm - N/A   Clear
6:53 PM 39.0 °F - 30.9 °F 73% 30.09 in 4.0 mi Calm Calm - N/A   Haze
7:53 PM 37.0 °F - 30.9 °F 79% 30.09 in 10.0 mi Calm Calm - N/A   Clear
8:53 PM 34.0 °F - 30.9 °F 89% 30.09 in 8.0 mi Calm Calm - N/A   Clear
9:53 PM 32.0 °F - 28.9 °F 88% 30.10 in 6.0 mi Calm Calm - N/A   Clear
10:53 PM 30.9 °F - 28.9 °F 92% 30.11 in 4.0 mi Calm Calm - N/A   Clear
11:53 PM 32.0 °F - 28.9 °F 88% 30.10 in 5.0 mi Calm Calm - N/A   Clear